EJU65KV LIRN-LFMN

Flight info

Callsign EJU65KV
Flight time 1h 23m
Altitude 36000
Route VEXUV DCT PNZ DCT RIFFI DCT ELVIN DCT TOBGA/N0413F300 DCT DOBIM DCT AKUTI R16 KERIT
Aircraft A320/M-SDE2E3FGHIJ1RWXYZ/LB1

Departure

Time 2026-05-06 12:43
Airport Naples International Airport (LIRN)

Arrival

Time 2026-05-06 14:07
Airport Nice-Côte d'Azur Airport (LFMN)
Time Latitude Longitude Altitude Speed Heading
2026-05-06 12:09 40.87883 14.28285 291 ft 0 kts 187°
2026-05-06 12:32 40.87907 14.28289 292 ft 4 kts 187°
2026-05-06 12:33 40.87928 14.28293 292 ft 4 kts 176°
2026-05-06 12:33 40.87948 14.28282 294 ft 4 kts 113°
2026-05-06 12:33 40.87953 14.28255 294 ft 1 kts 97°
2026-05-06 12:36 40.87948 14.28307 290 ft 12 kts 96°
2026-05-06 12:37 40.87943 14.28448 292 ft 19 kts 69°
2026-05-06 12:37 40.88007 14.28540 285 ft 12 kts 49°
2026-05-06 12:37 40.88072 14.28647 282 ft 19 kts 48°
2026-05-06 12:37 40.88135 14.28756 280 ft 19 kts 53°
2026-05-06 12:38 40.88183 14.28841 278 ft 11 kts 53°
2026-05-06 12:38 40.88214 14.28897 276 ft 14 kts 53°
2026-05-06 12:38 40.88267 14.28988 274 ft 18 kts 52°
2026-05-06 12:39 40.88364 14.29156 270 ft 25 kts 55°
2026-05-06 12:39 40.88461 14.29319 265 ft 27 kts 50°
2026-05-06 12:39 40.88565 14.29507 260 ft 22 kts 55°
2026-05-06 12:39 40.88663 14.29675 255 ft 23 kts 53°
2026-05-06 12:40 40.88746 14.29818 251 ft 21 kts 52°
2026-05-06 12:40 40.88832 14.29967 246 ft 18 kts 52°
2026-05-06 12:40 40.88910 14.30103 241 ft 7 kts 53°
2026-05-06 12:40 40.88966 14.30198 238 ft 19 kts 51°
2026-05-06 12:41 40.89043 14.30253 236 ft 2 kts 327°
2026-05-06 12:41 40.89050 14.30247 235 ft 5 kts 327°
2026-05-06 12:41 40.89108 14.30197 234 ft 14 kts 314°
2026-05-06 12:41 40.89109 14.30149 237 ft 0 kts 239°
2026-05-06 12:42 40.89099 14.30127 236 ft 13 kts 239°
2026-05-06 12:43 40.88929 14.29770 248 ft 81 kts 236°
2026-05-06 12:43 40.88518 14.28918 275 ft 137 kts 234°
2026-05-06 12:43 40.87987 14.27839 748 ft 136 kts 233°
2026-05-06 12:43 40.87435 14.26748 1122 ft 148 kts 228°
2026-05-06 12:44 40.86570 14.25970 1527 ft 162 kts 191°
2026-05-06 12:44 40.85412 14.26131 1945 ft 176 kts 167°
2026-05-06 12:44 40.84207 14.26518 2527 ft 182 kts 171°
2026-05-06 12:44 40.82935 14.26747 3087 ft 188 kts 177°
2026-05-06 12:45 40.81599 14.26853 3648 ft 193 kts 177°
2026-05-06 12:45 40.80287 14.27038 4416 ft 190 kts 176°
2026-05-06 12:45 40.77626 14.27462 5597 ft 197 kts 175°
2026-05-06 12:46 40.77059 14.27566 5826 ft 199 kts 175°
2026-05-06 12:46 40.75899 14.27774 6312 ft 202 kts 175°
2026-05-06 12:46 40.74493 14.28020 6833 ft 208 kts 177°
2026-05-06 12:46 40.73058 14.28217 7427 ft 208 kts 178°
2026-05-06 12:47 40.71626 14.28380 8031 ft 208 kts 186°
2026-05-06 12:47 40.70237 14.27846 8368 ft 216 kts 218°
2026-05-06 12:47 40.69082 14.26497 8728 ft 232 kts 226°
2026-05-06 12:47 40.67850 14.24973 9037 ft 255 kts 225°
2026-05-06 12:48 40.66495 14.23312 9398 ft 274 kts 224°
2026-05-06 12:48 40.65060 14.21610 10080 ft 282 kts 223°
2026-05-06 12:48 40.63574 14.19916 10742 ft 283 kts 222°
2026-05-06 12:48 40.62067 14.18243 11439 ft 283 kts 222°
2026-05-06 12:49 40.60556 14.16571 12233 ft 285 kts 222°
2026-05-06 12:49 40.59044 14.14886 13005 ft 286 kts 223°
2026-05-06 12:49 40.57522 14.13177 13762 ft 288 kts 223°
2026-05-06 12:49 40.55993 14.11451 14423 ft 290 kts 223°
2026-05-06 12:50 40.54499 14.09762 15067 ft 292 kts 223°
2026-05-06 12:50 40.53946 14.09135 15296 ft 293 kts 223°
2026-05-06 12:50 40.52396 14.07380 15946 ft 295 kts 223°
2026-05-06 12:51 40.50919 14.05504 16578 ft 296 kts 232°
2026-05-06 12:51 40.49813 14.03227 17203 ft 298 kts 245°
2026-05-06 12:51 40.49062 14.00675 17832 ft 300 kts 249°
2026-05-06 12:51 40.48346 13.98096 18455 ft 302 kts 249°
2026-05-06 12:52 40.47618 13.95493 19006 ft 305 kts 249°
2026-05-06 12:52 40.46881 13.92869 19560 ft 307 kts 249°
2026-05-06 12:52 40.46138 13.90235 20109 ft 309 kts 249°
2026-05-06 12:52 40.45385 13.87578 20656 ft 312 kts 249°
2026-05-06 12:53 40.44624 13.84900 21204 ft 314 kts 249°
2026-05-06 12:53 40.43859 13.82206 21740 ft 316 kts 249°
2026-05-06 12:53 40.43336 13.79395 22264 ft 321 kts 263°
2026-05-06 12:53 40.43447 13.76452 22765 ft 327 kts 278°
2026-05-06 12:54 40.44215 13.73561 22944 ft 347 kts 295°
2026-05-06 12:54 40.45651 13.70918 23093 ft 365 kts 304°
2026-05-06 12:54 40.47275 13.68279 23228 ft 378 kts 304°
2026-05-06 12:54 40.48950 13.65563 23544 ft 385 kts 304°
2026-05-06 12:55 40.50641 13.62818 23939 ft 389 kts 304°
2026-05-06 12:55 40.52346 13.60047 24370 ft 391 kts 304°
2026-05-06 12:55 40.54055 13.57259 24804 ft 392 kts 304°
2026-05-06 12:55 40.55765 13.54460 25254 ft 393 kts 303°
2026-05-06 12:56 40.57473 13.51654 25683 ft 394 kts 303°
2026-05-06 12:56 40.59186 13.48834 26108 ft 395 kts 303°
2026-05-06 12:56 40.60902 13.46005 26481 ft 397 kts 303°
2026-05-06 12:56 40.62629 13.43160 26863 ft 399 kts 303°
2026-05-06 12:57 40.64364 13.40298 27242 ft 400 kts 302°
2026-05-06 12:57 40.66101 13.37433 27617 ft 402 kts 302°
2026-05-06 12:57 40.67850 13.34548 27989 ft 403 kts 302°
2026-05-06 12:57 40.69602 13.31653 28356 ft 405 kts 302°
2026-05-06 12:58 40.71358 13.28749 28708 ft 406 kts 302°
2026-05-06 12:58 40.73109 13.25847 29064 ft 408 kts 302°
2026-05-06 12:58 40.74875 13.22914 29401 ft 409 kts 302°
2026-05-06 12:58 40.76647 13.19968 29742 ft 410 kts 302°
2026-05-06 12:59 40.78424 13.17012 30065 ft 412 kts 302°
2026-05-06 12:59 40.80206 13.14047 30346 ft 413 kts 302°
2026-05-06 12:59 40.81991 13.11079 30640 ft 414 kts 301°
2026-05-06 12:59 40.83782 13.08096 30893 ft 415 kts 301°
2026-05-06 13:00 40.85578 13.05098 31141 ft 416 kts 301°
2026-05-06 13:00 40.87372 13.02099 31399 ft 417 kts 301°
2026-05-06 13:00 40.89167 12.99097 31757 ft 415 kts 301°
2026-05-06 13:00 40.90958 12.96123 32134 ft 414 kts 303°
2026-05-06 13:01 40.92943 12.93346 32499 ft 416 kts 307°
2026-05-06 13:01 40.94966 12.90624 32854 ft 414 kts 307°
2026-05-06 13:01 40.96985 12.87906 33212 ft 412 kts 307°
2026-05-06 13:01 40.98987 12.85202 33568 ft 411 kts 306°
2026-05-06 13:02 41.00976 12.82507 33921 ft 409 kts 306°
2026-05-06 13:02 41.02960 12.79815 34233 ft 407 kts 306°
2026-05-06 13:02 41.04934 12.77130 34506 ft 407 kts 306°
2026-05-06 13:02 41.06905 12.74445 34770 ft 407 kts 307°
2026-05-06 13:03 41.08884 12.71746 34909 ft 410 kts 307°
2026-05-06 13:03 41.10875 12.69025 35035 ft 412 kts 307°
2026-05-06 13:03 41.12874 12.66293 35201 ft 414 kts 307°
2026-05-06 13:03 41.14880 12.63558 35411 ft 414 kts 307°
2026-05-06 13:04 41.16886 12.60819 35609 ft 414 kts 307°
2026-05-06 13:04 41.18896 12.58073 35818 ft 414 kts 307°
2026-05-06 13:04 41.20904 12.55330 35973 ft 414 kts 307°
2026-05-06 13:05 41.24894 12.49891 36011 ft 409 kts 307°
2026-05-06 13:05 41.28855 12.44475 36006 ft 408 kts 307°
2026-05-06 13:06 41.32804 12.39040 36031 ft 409 kts 307°
2026-05-06 13:06 41.36764 12.33581 36012 ft 410 kts 307°
2026-05-06 13:07 41.40734 12.28114 36011 ft 411 kts 307°
2026-05-06 13:07 41.44702 12.22633 36013 ft 411 kts 307°
2026-05-06 13:08 41.48670 12.17143 36007 ft 411 kts 307°
2026-05-06 13:08 41.52482 12.11504 36005 ft 407 kts 303°
2026-05-06 13:09 41.56086 12.05680 36005 ft 406 kts 302°
2026-05-06 13:09 41.59068 12.00820 36018 ft 408 kts 302°
2026-05-06 13:10 41.62703 11.94985 35998 ft 409 kts 302°
2026-05-06 13:10 41.66371 11.89152 35986 ft 410 kts 302°
2026-05-06 13:11 41.70037 11.83316 35984 ft 410 kts 302°
2026-05-06 13:11 41.73706 11.77460 35983 ft 410 kts 302°
2026-05-06 13:12 41.77360 11.71599 35975 ft 410 kts 302°
2026-05-06 13:12 41.81013 11.65731 35999 ft 410 kts 302°
2026-05-06 13:13 41.84666 11.59849 35989 ft 410 kts 302°
2026-05-06 13:13 41.88313 11.53959 35984 ft 410 kts 302°
2026-05-06 13:14 41.91965 11.48062 35977 ft 411 kts 302°
2026-05-06 13:14 41.95611 11.42159 35970 ft 411 kts 301°
2026-05-06 13:15 41.99256 11.36239 35968 ft 411 kts 301°
2026-05-06 13:15 42.02897 11.30322 35978 ft 411 kts 301°
2026-05-06 13:16 42.06543 11.24384 35996 ft 411 kts 301°
2026-05-06 13:16 42.10185 11.18443 35984 ft 411 kts 301°
2026-05-06 13:17 42.13823 11.12498 35977 ft 411 kts 301°
2026-05-06 13:17 42.17436 11.06580 35972 ft 411 kts 301°
2026-05-06 13:18 42.21094 11.00584 35963 ft 411 kts 301°
2026-05-06 13:18 42.24695 10.94655 35962 ft 411 kts 301°
2026-05-06 13:19 42.28341 10.88637 35962 ft 411 kts 301°
2026-05-06 13:19 42.31940 10.82695 35955 ft 412 kts 301°
2026-05-06 13:20 42.35561 10.76692 35955 ft 412 kts 301°
2026-05-06 13:20 42.39170 10.70710 35936 ft 407 kts 301°
2026-05-06 13:21 42.42674 10.64922 35940 ft 388 kts 301°
2026-05-06 13:21 42.46014 10.59384 35941 ft 371 kts 300°
2026-05-06 13:22 42.49313 10.53846 35939 ft 385 kts 300°
2026-05-06 13:22 42.52732 10.48091 35938 ft 398 kts 300°
2026-05-06 13:23 42.56273 10.42162 35934 ft 411 kts 301°
2026-05-06 13:23 42.59884 10.36119 35934 ft 415 kts 301°
2026-05-06 13:24 42.63522 10.30008 35934 ft 416 kts 301°
2026-05-06 13:24 42.67155 10.23895 35931 ft 416 kts 301°
2026-05-06 13:25 42.70781 10.17774 35950 ft 416 kts 301°
2026-05-06 13:25 42.74407 10.11637 35937 ft 417 kts 301°
2026-05-06 13:26 42.78015 10.05516 35932 ft 417 kts 301°
2026-05-06 13:26 42.81620 9.99394 35939 ft 417 kts 301°
2026-05-06 13:27 42.85270 9.93179 35922 ft 418 kts 301°
2026-05-06 13:27 42.87084 9.90081 35810 ft 420 kts 301°
2026-05-06 13:27 42.88907 9.86969 35557 ft 419 kts 301°
2026-05-06 13:27 42.90695 9.83848 35303 ft 416 kts 300°
2026-05-06 13:28 42.92428 9.80705 34873 ft 412 kts 298°
2026-05-06 13:28 42.94103 9.77574 34350 ft 409 kts 298°
2026-05-06 13:28 42.95625 9.74338 33840 ft 398 kts 289°
2026-05-06 13:28 42.96758 9.70982 33321 ft 391 kts 286°
2026-05-06 13:29 42.97878 9.67626 32849 ft 388 kts 287°
2026-05-06 13:29 42.99015 9.64304 32364 ft 385 kts 287°
2026-05-06 13:29 43.00150 9.61021 31871 ft 381 kts 287°
2026-05-06 13:29 43.01295 9.57710 31409 ft 378 kts 287°
2026-05-06 13:30 43.02393 9.54516 30951 ft 375 kts 287°
2026-05-06 13:30 43.03491 9.51298 30530 ft 372 kts 286°
2026-05-06 13:30 43.04573 9.48107 30057 ft 369 kts 286°
2026-05-06 13:30 43.05649 9.44929 29588 ft 366 kts 286°
2026-05-06 13:31 43.06711 9.41792 29142 ft 362 kts 286°
2026-05-06 13:31 43.07763 9.38682 28720 ft 358 kts 286°
2026-05-06 13:31 43.08802 9.35599 28314 ft 354 kts 286°
2026-05-06 13:31 43.09825 9.32564 27909 ft 350 kts 286°
2026-05-06 13:32 43.10841 9.29550 27503 ft 346 kts 286°
2026-05-06 13:32 43.11840 9.26586 27100 ft 342 kts 286°
2026-05-06 13:32 43.12831 9.23644 26690 ft 339 kts 286°
2026-05-06 13:32 43.13811 9.20724 26280 ft 336 kts 286°
2026-05-06 13:33 43.14784 9.17825 25873 ft 333 kts 287°
2026-05-06 13:33 43.15745 9.14964 25451 ft 331 kts 287°
2026-05-06 13:33 43.16701 9.12106 25028 ft 329 kts 287°
2026-05-06 13:33 43.17650 9.09270 24600 ft 327 kts 287°
2026-05-06 13:34 43.18596 9.06438 24171 ft 326 kts 287°
2026-05-06 13:34 43.19540 9.03605 23731 ft 326 kts 287°
2026-05-06 13:34 43.20478 9.00788 23257 ft 325 kts 287°
2026-05-06 13:34 43.21413 8.97978 22817 ft 323 kts 287°
2026-05-06 13:35 43.22344 8.95189 22367 ft 320 kts 287°
2026-05-06 13:35 43.23268 8.92421 21927 ft 319 kts 287°
2026-05-06 13:35 43.24186 8.89666 21496 ft 317 kts 287°
2026-05-06 13:35 43.25099 8.86916 21083 ft 315 kts 287°
2026-05-06 13:36 43.26002 8.84190 20665 ft 314 kts 287°
2026-05-06 13:36 43.26906 8.81468 20254 ft 312 kts 287°
2026-05-06 13:36 43.27805 8.78763 19842 ft 311 kts 288°
2026-05-06 13:36 43.28703 8.76057 19429 ft 311 kts 287°
2026-05-06 13:37 43.29592 8.73366 19027 ft 310 kts 288°
2026-05-06 13:37 43.30481 8.70672 18645 ft 310 kts 287°
2026-05-06 13:37 43.31371 8.67969 18218 ft 310 kts 287°
2026-05-06 13:37 43.32262 8.65272 17766 ft 309 kts 287°
2026-05-06 13:38 43.33148 8.62587 17369 ft 307 kts 287°
2026-05-06 13:38 43.33826 8.59858 16969 ft 298 kts 276°
2026-05-06 13:38 43.34012 8.57076 16649 ft 289 kts 263°
2026-05-06 13:38 43.33813 8.54353 16363 ft 286 kts 259°
2026-05-06 13:39 43.33580 8.51640 16073 ft 286 kts 260°
2026-05-06 13:39 43.33357 8.48925 15774 ft 286 kts 260°
2026-05-06 13:39 43.33134 8.46215 15480 ft 286 kts 260°
2026-05-06 13:39 43.32911 8.43510 15187 ft 285 kts 260°
2026-05-06 13:40 43.32685 8.40801 14892 ft 285 kts 260°
2026-05-06 13:40 43.32456 8.38106 14595 ft 284 kts 261°
2026-05-06 13:40 43.32228 8.35408 14304 ft 284 kts 261°
2026-05-06 13:40 43.32001 8.32715 14014 ft 284 kts 261°
2026-05-06 13:41 43.31774 8.30019 13721 ft 285 kts 261°
2026-05-06 13:41 43.31543 8.27317 13396 ft 284 kts 261°
2026-05-06 13:41 43.31312 8.24627 13096 ft 283 kts 261°
2026-05-06 13:41 43.31082 8.21969 12810 ft 282 kts 261°
2026-05-06 13:42 43.30855 8.19314 12518 ft 280 kts 261°
2026-05-06 13:42 43.30626 8.16662 12239 ft 279 kts 261°
2026-05-06 13:42 43.30401 8.14021 11941 ft 278 kts 261°
2026-05-06 13:42 43.30347 8.11374 11658 ft 279 kts 273°
2026-05-06 13:43 43.30793 8.08777 11362 ft 282 kts 287°
2026-05-06 13:43 43.31688 8.06362 11071 ft 285 kts 295°
2026-05-06 13:43 43.32665 8.04015 10775 ft 284 kts 295°
2026-05-06 13:43 43.33644 8.01665 10488 ft 282 kts 295°
2026-05-06 13:44 43.34614 7.99327 10192 ft 281 kts 295°
2026-05-06 13:44 43.35576 7.96997 9910 ft 279 kts 295°
2026-05-06 13:44 43.36529 7.94692 9597 ft 276 kts 295°
2026-05-06 13:44 43.37471 7.92406 9302 ft 274 kts 295°
2026-05-06 13:45 43.38406 7.90126 9031 ft 273 kts 295°
2026-05-06 13:45 43.40266 7.85597 8459 ft 271 kts 296°
2026-05-06 13:45 43.41190 7.83346 8180 ft 269 kts 296°
2026-05-06 13:46 43.41951 7.81017 7904 ft 265 kts 287°
2026-05-06 13:46 43.42582 7.78640 7629 ft 264 kts 287°
2026-05-06 13:46 43.43209 7.76273 7356 ft 263 kts 287°
2026-05-06 13:46 43.43835 7.73909 7071 ft 262 kts 287°
2026-05-06 13:47 43.44456 7.71578 6802 ft 256 kts 286°
2026-05-06 13:47 43.45084 7.69288 6577 ft 258 kts 291°
2026-05-06 13:47 43.46120 7.67277 6453 ft 261 kts 307°
2026-05-06 13:47 43.47339 7.65420 6333 ft 263 kts 308°
2026-05-06 13:48 43.48571 7.63546 6209 ft 264 kts 308°
2026-05-06 13:48 43.49804 7.61671 6075 ft 264 kts 308°
2026-05-06 13:48 43.51028 7.59806 5946 ft 260 kts 307°
2026-05-06 13:48 43.52246 7.57953 5814 ft 261 kts 309°
2026-05-06 13:49 43.53453 7.56113 5545 ft 257 kts 308°
2026-05-06 13:49 43.54644 7.54296 5168 ft 253 kts 309°
2026-05-06 13:49 43.55818 7.52510 4855 ft 248 kts 309°
2026-05-06 13:49 43.56961 7.50774 4720 ft 241 kts 308°
2026-05-06 13:50 43.58073 7.49056 4657 ft 241 kts 305°
2026-05-06 13:50 43.59058 7.47172 4175 ft 246 kts 301°
2026-05-06 13:50 43.60051 7.45215 3544 ft 250 kts 301°
2026-05-06 13:50 43.61019 7.43314 3271 ft 233 kts 300°
2026-05-06 13:51 43.61915 7.41563 3139 ft 216 kts 300°
2026-05-06 13:51 43.62774 7.39877 3046 ft 214 kts 300°
2026-05-06 13:51 43.63611 7.38235 3010 ft 207 kts 301°
2026-05-06 13:51 43.64436 7.36613 3011 ft 205 kts 300°
2026-05-06 13:52 43.65252 7.35013 3001 ft 198 kts 301°
2026-05-06 13:52 43.66021 7.33510 2922 ft 189 kts 299°
2026-05-06 13:52 43.66665 7.31979 2700 ft 183 kts 289°
2026-05-06 13:52 43.67164 7.30361 2359 ft 186 kts 288°
2026-05-06 13:53 43.67679 7.28706 1882 ft 188 kts 288°
2026-05-06 13:53 43.68027 7.27608 1601 ft 189 kts 288°
2026-05-06 13:53 43.68479 7.25889 1145 ft 185 kts 273°
2026-05-06 13:53 43.68096 7.24432 752 ft 163 kts 220°
2026-05-06 13:54 43.67078 7.23032 207 ft 149 kts 225°
2026-05-06 13:54 43.66619 7.22372 210 ft 140 kts 224°
2026-05-06 13:54 43.65929 7.21353 819 ft 150 kts 226°
2026-05-06 13:54 43.65205 7.20195 1482 ft 171 kts 229°
2026-05-06 13:55 43.64409 7.18829 2001 ft 192 kts 232°
2026-05-06 13:55 43.63575 7.17292 2598 ft 208 kts 234°
2026-05-06 13:55 43.62748 7.15657 3218 ft 207 kts 236°
2026-05-06 13:55 43.61733 7.14194 3044 ft 218 kts 206°
2026-05-06 13:56 43.60304 7.14029 2992 ft 218 kts 167°
2026-05-06 13:56 43.59052 7.15311 3007 ft 235 kts 130°
2026-05-06 13:56 43.58326 7.17348 3007 ft 242 kts 108°
2026-05-06 13:56 43.57843 7.19560 2975 ft 239 kts 110°
2026-05-06 13:57 43.57312 7.21745 3003 ft 242 kts 112°
2026-05-06 13:57 43.56757 7.23945 3006 ft 242 kts 112°
2026-05-06 13:57 43.56198 7.26128 3006 ft 240 kts 112°
2026-05-06 13:57 43.55643 7.28292 3006 ft 241 kts 112°
2026-05-06 13:58 43.55085 7.30471 3004 ft 241 kts 112°
2026-05-06 13:58 43.54526 7.32662 2977 ft 244 kts 113°
2026-05-06 13:58 43.53956 7.34897 2728 ft 243 kts 113°
2026-05-06 13:58 43.53399 7.37093 2466 ft 241 kts 112°
2026-05-06 13:59 43.52850 7.39255 2207 ft 238 kts 114°
2026-05-06 13:59 43.52307 7.41395 2044 ft 233 kts 113°
2026-05-06 13:59 43.51793 7.43445 1993 ft 221 kts 110°
2026-05-06 13:59 43.51659 7.45519 2004 ft 218 kts 83°
2026-05-06 14:00 43.52165 7.47456 2044 ft 215 kts 56°
2026-05-06 14:00 43.53187 7.48911 2004 ft 210 kts 28°
2026-05-06 14:00 43.54521 7.49649 2003 ft 204 kts
2026-05-06 14:00 43.55886 7.49618 2008 ft 191 kts 343°
2026-05-06 14:01 43.57154 7.49211 2007 ft 184 kts 332°
2026-05-06 14:01 43.58244 7.48357 2006 ft 177 kts 314°
2026-05-06 14:01 43.59075 7.47121 2016 ft 181 kts 297°
2026-05-06 14:01 43.59797 7.45690 2012 ft 182 kts 298°
2026-05-06 14:02 43.60529 7.44256 2008 ft 184 kts 299°
2026-05-06 14:02 43.61265 7.42816 2007 ft 184 kts 299°
2026-05-06 14:02 43.62002 7.41375 2009 ft 182 kts 298°
2026-05-06 14:02 43.62686 7.40051 1996 ft 157 kts 298°
2026-05-06 14:03 43.63290 7.38882 2013 ft 145 kts 297°
2026-05-06 14:03 43.63863 7.37760 2004 ft 142 kts 298°
2026-05-06 14:03 43.64429 7.36648 2007 ft 141 kts 296°
2026-05-06 14:03 43.64990 7.35537 2005 ft 141 kts 296°
2026-05-06 14:04 43.65550 7.34429 2006 ft 142 kts 297°
2026-05-06 14:04 43.66117 7.33309 2004 ft 142 kts 297°
2026-05-06 14:04 43.66683 7.32193 1818 ft 142 kts 296°
2026-05-06 14:04 43.67227 7.31056 1571 ft 141 kts 291°
2026-05-06 14:05 43.67625 7.29836 1320 ft 139 kts 281°
2026-05-06 14:05 43.67860 7.28563 1087 ft 135 kts 270°
2026-05-06 14:05 43.67956 7.27303 817 ft 131 kts 265°
2026-05-06 14:05 43.68017 7.26040 532 ft 133 kts 266°
2026-05-06 14:06 43.67965 7.24798 363 ft 129 kts 251°
2026-05-06 14:06 43.67585 7.23727 266 ft 123 kts 226°
2026-05-06 14:06 43.66995 7.22900 107 ft 122 kts 223°
2026-05-06 14:06 43.66411 7.22087 22 ft 101 kts 223°
2026-05-06 14:07 43.66093 7.21664 20 ft 45 kts 225°
2026-05-06 14:07 43.65897 7.21390 21 ft 36 kts 224°
2026-05-06 14:07 43.65741 7.21181 23 ft 26 kts 226°
2026-05-06 14:07 43.65627 7.21009 23 ft 22 kts 246°
2026-05-06 14:08 43.65677 7.20891 21 ft 9 kts 347°
2026-05-06 14:08 43.65679 7.20891 21 ft 0 kts 348°
2026-05-06 14:09 43.65702 7.20884 21 ft 8 kts 348°
2026-05-06 14:09 43.65792 7.20863 21 ft 18 kts 352°
2026-05-06 14:09 43.65891 7.20844 23 ft 15 kts 351°
2026-05-06 14:10 43.65924 7.20836 21 ft 0 kts 348°
2026-05-06 14:10 43.65934 7.20825 23 ft 6 kts 312°
2026-05-06 14:10 43.65952 7.20752 21 ft 3 kts 282°
2026-05-06 14:11 43.65955 7.20733 21 ft 3 kts 282°
2026-05-06 14:11 43.65956 7.20725 21 ft 0 kts 281°
2026-05-06 14:19 43.68015 7.26080 541 ft 0 kts 266°
2026-05-06 14:19 43.67955 7.24747 -2 ft 20 kts 250°